Location: ??
(34.7707°N, 135.6540°E)
Time: 04:54:19
(UTC+00:00)

SL-16 R/B - Pass Details

Date: 09 April 2020
Orbit: 985 x 1007 km, 99.5° (Epoch: 05 June)

Event Time Altitude Azimuth Distance (km) Brightness Sun altitude
Exits shadow 16:48:23 24° 349° (N) 1,938 4.3 -40.1°
Drops below altitude 10° 16:50:39 10° 348° (NNW) 2,773 5.2 -39.8°
Sets 16:53:08 0° 348° (NNW) 3,723 6.0 -39.5°
